W4RJF Weather Reports


Display with metric or nautical units.
time (UTC)temp
F
wind
direction
speed
MPH
gust
MPH
rain 1hr
in
rain 24hr
in
rain mn
in
humidity
%
barometer
mb
20210925224004 70 298 0.0 0.0 0.00 0.00 0.00 60 1015.4
20210925223004 72 298 0.0 0.0 0.00 0.00 0.00 57 1015.4
20210925222004 72 298 0.0 3.0 0.00 0.00 0.00 56 1015.4
20210925221005 72 306 0.0 1.0 0.00 0.00 0.00 56 1015.4
20210925220004 73 306 1.0 3.0 0.00 0.00 0.00 52 1015.3
20210925215004 73 306 1.0 3.0 0.00 0.00 0.00 50 1015.4
20210925214007 73 321 0.0 6.0 0.00 0.00 0.00 48 1015.3
20210925213005 74 292 1.0 5.0 0.00 0.00 0.00 49 1015.2
20210925212004 75 285 2.0 6.0 0.00 0.00 0.00 47 1015.2
20210925211004 75 323 2.0 8.0 0.00 0.00 0.00 45 1015.2
20210925210004 75 338 3.0 5.0 0.00 0.00 0.00 44 1015.1
20210925205005 75 326 2.0 6.0 0.00 0.00 0.00 45 1015.1
20210925204004 75 344 2.0 3.0 0.00 0.00 0.00 47 1015.0
20210925203004 75 263 2.0 5.0 0.00 0.00 0.00 43 1015.1
20210925202004 75 290 0.0 5.0 0.00 0.00 0.00 44 1015.2
20210925201004 75 292 2.0 5.0 0.00 0.00 0.00 44 1015.2
20210925200003 75 308 3.0 5.0 0.00 0.00 0.00 42 1015.3
20210925195005 75 281 2.0 5.0 0.00 0.00 0.00 44 1015.4
20210925194005 75 88 5.0 8.0 0.00 0.00 0.00 41 1015.5
20210925193004 75 296 6.0 8.0 0.00 0.00 0.00 41 1015.8
20210925192005 75 270 1.0 9.0 0.00 0.00 0.00 43 1015.9
20210925191004 76 291 3.0 6.0 0.00 0.00 0.00 44 1015.9
20210925190004 76 210 3.0 6.0 0.00 0.00 0.00 44 1016.0
20210925185004 78 67 6.0 8.0 0.00 0.00 0.00 42 1015.9
20210925184005 77 275 3.0 6.0 0.00 0.00 0.00 42 1016.3
20210925183004 77 301 4.0 5.0 0.00 0.00 0.00 41 1016.5
20210925182004 77 308 3.0 8.0 0.00 0.00 0.00 41 1016.5
20210925181004 77 105 3.0 8.0 0.00 0.00 0.00 36 1016.7
20210925180004 78 256 4.0 5.0 0.00 0.00 0.00 39 1016.8
20210925175004 77 106 1.0 5.0 0.00 0.00 0.00 40 1016.8
20210925174004 78 46 2.0 6.0 0.00 0.00 0.00 43 1017.1
20210925173004 78 257 2.0 6.0 0.00 0.00 0.00 42 1017.3
20210925172004 76 235 4.0 9.0 0.00 0.00 0.00 39 1017.4
20210925171004 76 347 4.0 8.0 0.00 0.00 0.00 43 1017.6
20210925170004 77 319 1.0 8.0 0.00 0.00 0.00 39 1017.7
20210925165004 76 287 3.0 6.0 0.00 0.00 0.00 40 1017.8
20210925164005 76 250 3.0 6.0 0.00 0.00 0.00 44 1018.0
20210925163004 76 219 2.0 6.0 0.00 0.00 0.00 47 1018.1
20210925162004 75 314 2.0 9.0 0.00 0.00 0.00 47 1018.2
20210925161005 76 312 2.0 5.0 0.00 0.00 0.00 48 1018.4
20210925160004 74 250 2.0 8.0 0.00 0.00 0.00 47 1018.5
20210925155004 74 289 3.0 10.0 0.00 0.00 0.00 48 1018.5
20210925154005 75 102 1.0 8.0 0.00 0.00 0.00 53 1018.5
20210925153005 73 288 3.0 5.0 0.00 0.00 0.00 46 1018.6
20210925152004 72 57 4.0 5.0 0.00 0.00 0.00 48 1018.7
20210925151004 71 80 3.0 6.0 0.00 0.00 0.00 46 1018.7
20210925150004 70 60 4.0 6.0 0.00 0.00 0.00 56 1018.9
20210925145004 69 70 2.0 5.0 0.00 0.00 0.00 60 1019.0
20210925144004 67 281 4.0 5.0 0.00 0.00 0.00 67 1019.0
20210925143004 64 41 0.0 5.0 0.00 0.00 0.00 72 1019.1
20210925142005 63 5 2.0 3.0 0.00 0.00 0.00 76 1019.2
20210925141004 63 17 0.0 3.0 0.00 0.00 0.00 76 1019.2
20210925140004 61 22 2.0 5.0 0.00 0.00 0.00 81 1019.1
20210925135004 58 294 0.0 5.0 0.00 0.00 0.00 89 1019.1
20210925134004 57 312 4.0 5.0 0.00 0.00 0.00 90 1019.1
20210925133005 56 47 1.0 3.0 0.00 0.00 0.00 89 1019.1
20210925132004 55 47 0.0 1.0 0.00 0.00 0.00 89 1019.1
20210925131005 54 51 0.0 0.0 0.00 0.00 0.00 89 1019.1
20210925130003 54 51 0.0 0.0 0.00 0.00 0.00 88 1018.9
20210925125005 53 51 0.0 0.0 0.00 0.00 0.00 88 1018.9
20210925124004 53 51 0.0 0.0 0.00 0.00 0.00 87 1018.9
20210925123004 52 51 0.0 0.0 0.00 0.00 0.00 87 1018.8
20210925122005 52 51 0.0 0.0 0.00 0.00 0.00 87 1018.8
20210925121004 52 51 0.0 0.0 0.00 0.00 0.00 87 1018.8
20210925120004 52 51 0.0 0.0 0.00 0.00 0.00 86 1018.7
20210925115004 52 51 0.0 0.0 0.00 0.00 0.00 86 1018.6
20210925114004 52 51 0.0 0.0 0.00 0.00 0.00 86 1018.5
20210925113005 52 51 0.0 0.0 0.00 0.00 0.00 86 1018.4
20210925112004 52 51 0.0 0.0 0.00 0.00 0.00 86 1018.4
20210925111004 52 51 0.0 0.0 0.00 0.00 0.00 85 1018.3
20210925110004 52 51 0.0 0.0 0.00 0.00 0.00 85 1018.2
20210925105004 52 51 0.0 0.0 0.00 0.00 0.00 85 1018.4
20210925104004 52 51 0.0 0.0 0.00 0.00 0.00 85 1018.4
20210925103004 52 51 0.0 0.0 0.00 0.00 0.00 85 1018.3
20210925102004 52 51 0.0 0.0 0.00 0.00 0.00 85 1018.3
20210925101004 52 51 0.0 0.0 0.00 0.00 0.00 85 1018.1
20210925100004 53 51 0.0 0.0 0.00 0.00 0.00 85 1018.1
20210925095005 53 51 0.0 0.0 0.00 0.00 0.00 86 1018.2
20210925094004 53 51 0.0 0.0 0.00 0.00 0.00 85 1018.1
20210925093004 53 51 0.0 0.0 0.00 0.00 0.00 85 1018.0
20210925092004 53 51 0.0 0.0 0.00 0.00 0.00 85 1018.0
20210925091004 53 51 0.0 0.0 0.00 0.00 0.00 85 1018.1
20210925090004 53 51 0.0 0.0 0.00 0.00 0.00 84 1018.1
20210925085005 53 51 0.0 0.0 0.00 0.00 0.00 84 1018.1
20210925084004 53 51 0.0 0.0 0.00 0.00 0.00 85 1017.9
20210925083005 54 51 0.0 0.0 0.00 0.00 0.00 84 1017.9
20210925082004 54 51 0.0 0.0 0.00 0.00 0.00 84 1017.9
20210925081005 54 51 0.0 0.0 0.00 0.00 0.00 85 1018.0
20210925080004 54 51 0.0 0.0 0.00 0.00 0.00 85 1018.1
20210925075004 54 51 0.0 0.0 0.00 0.00 0.00 85 1018.0
20210925074004 54 51 0.0 0.0 0.00 0.00 0.00 85 1018.0
20210925073004 54 51 0.0 0.0 0.00 0.00 0.00 85 1018.1
20210925072004 54 51 0.0 0.0 0.00 0.00 0.00 84 1018.1
20210925071004 54 51 0.0 0.0 0.00 0.00 0.00 84 1018.1
20210925070004 54 51 0.0 0.0 0.00 0.00 0.00 84 1018.0
20210925065004 55 51 0.0 0.0 0.00 0.00 0.00 84 1018.0
20210925064004 55 51 0.0 0.0 0.00 0.00 0.00 84 1018.1
20210925063004 55 51 0.0 0.0 0.00 0.00 0.00 84 1018.0
20210925062004 55 51 0.0 0.0 0.00 0.00 0.00 84 1017.9
20210925061004 55 51 0.0 0.0 0.00 0.00 0.00 84 1018.0
20210925060004 56 51 0.0 0.0 0.00 0.00 0.00 84 1018.0
20210925055004 56 51 0.0 0.0 0.00 0.00 0.00 84 1018.0
20210925054004 56 51 0.0 0.0 0.00 0.00 0.00 84 1018.1
20210925053004 56 51 0.0 0.0 0.00 0.00 0.00 83 1018.1
20210925052004 56 51 0.0 0.0 0.00 0.00 0.00 83 1018.2
20210925051004 56 51 0.0 0.0 0.00 0.00 0.00 83 1018.2
20210925050004 56 51 0.0 0.0 0.00 0.00 0.00 84 1018.3
20210925045004 56 51 0.0 0.0 0.00 0.00 0.00 83 1018.3
20210925044004 56 51 0.0 0.0 0.00 0.00 0.00 83 1018.4
20210925043005 57 51 0.0 0.0 0.00 0.00 0.00 83 1018.4
20210925042004 57 51 0.0 0.0 0.00 0.00 0.00 83 1018.5
20210925041005 57 51 0.0 0.0 0.00 0.00 0.00 83 1018.6
20210925040003 57 51 0.0 0.0 0.00 0.00 0.00 84 1018.7
20210925035005 57 51 0.0 0.0 0.00 0.00 0.00 84 1018.7
20210925034005 57 51 0.0 0.0 0.00 0.00 0.00 84 1018.6
20210925033005 57 51 0.0 0.0 0.00 0.00 0.00 84 1018.6
20210925032005 57 51 0.0 0.0 0.00 0.00 0.00 83 1018.6
20210925031004 58 51 0.0 0.0 0.00 0.00 0.00 83 1018.6
20210925030004 58 51 0.0 0.0 0.00 0.00 0.00 83 1018.6
20210925025005 58 51 0.0 0.0 0.00 0.00 0.00 82 1018.5
20210925024005 58 51 0.0 0.0 0.00 0.00 0.00 82 1018.6
20210925023005 59 51 0.0 0.0 0.00 0.00 0.00 82 1018.5
20210925022005 59 51 0.0 0.0 0.00 0.00 0.00 81 1018.4
20210925021004 60 51 0.0 0.0 0.00 0.00 0.00 81 1018.4
20210925020004 60 51 0.0 0.0 0.00 0.00 0.00 79 1018.4
20210925015004 60 51 0.0 0.0 0.00 0.00 0.00 77 1018.4
20210925014004 60 51 0.0 0.0 0.00 0.00 0.00 76 1018.4
20210925013005 60 51 0.0 0.0 0.00 0.00 0.00 77 1018.4
20210925012005 60 51 0.0 0.0 0.00 0.00 0.00 76 1018.4
20210925011004 60 51 0.0 1.0 0.00 0.00 0.00 77 1018.5
20210925010005 61 51 0.0 1.0 0.00 0.00 0.00 77 1018.5
20210925005004 61 51 0.0 0.0 0.00 0.00 0.00 77 1018.5
20210925004004 61 51 0.0 0.0 0.00 0.00 0.00 77 1018.3
20210925003006 61 51 0.0 1.0 0.00 0.00 0.00 76 1018.0
20210925002004 62 51 0.0 0.0 0.00 0.00 0.00 77 1018.0
20210925001004 62 51 0.0 0.0 0.00 0.00 0.00 76 1018.0
20210925000004 63 51 0.0 1.0 0.00 0.00 0.00 75 1017.9
20210924235004 63 51 1.0 1.0 0.00 0.00 0.00 74 1017.8
20210924234004 64 51 0.0 0.0 0.00 0.00 0.00 70 1017.7
20210924233004 65 51 0.0 0.0 0.00 0.00 0.00 67 1017.7
20210924232004 66 51 0.0 0.0 0.00 0.00 0.00 63 1017.7
20210924231004 67 51 0.0 0.0 0.00 0.00 0.00 65 1017.6
20210924230004 67 51 0.0 0.0 0.00 0.00 0.00 63 1017.8
20210924225004 68 51 0.0 0.0 0.00 0.00 0.00 61 1017.8